RH
29 35 34 32 42 71 83 64 76 74 49 41 65 78 91 91 90 84 92 72 61 55 54 56 56 48 35 26 17 14 14 15 14 14 13 13 13 15 19 17 15 13 12
69 71 72 76 100 75 41 46 57 36 36 45 74 83 77 74 68 76 78 72 62 59 54 40 37 32 27 25 21 19 21 24 25 24 22 17 22 29 29 28 24 22 22
91 97 92 80 55 44 47 43 43 49 64 79 79 76 70 67 71 76 73 60 53 43 37 34 30 26 24 24 27 27 29 30 34 38 37 31 24 24 36 40 38 36 35
99 100 97 75 51 46 48 48 52 64 75 75 71 71 72 76 74 70 55 44 35 33 33 35 34 31 29 28 29 33 34 35 38 43 46 48 49 45 34 36 38 42 44
90 100 94 77 62 61 59 63 75 74 72 71 77 76 76 68 52 38 30 36 38 35 28 27 26 26 26 27 30 37 43 48 52 53 53 52 49 46 43 36 32 29 30
56 56 72 71 70 68 65 77 73 72 77 75 64 49 35 31 29 30 33 37 32 30 29 27 26 26 28 34 35 34 31 29 27 29 34 32 27 20 19 14 8 9 9
86 94 70 83 70 71 74 77 78 78 65 44 34 29 29 29 31 28 27 27 26 25 27 30 32 36 31 20 13 11 10 10 10 10 11 11 12 11 9 7 6 6 5
88 60 72 64 62 64 56 36 32 27 20 21 23 24 22 20 20 23 28 30 32 33 33 30 21 12 9 9 11 13 18 27 26 23 21 19 17 14 13 13 12 10 9
57 72 73 63 59 34 32 36 23 23 25 27 28 30 28 28 32 35 34 36 36 34 26 15 11 11 12 15 18 39 47 28 30 28 23 21 22 24 27 36 53 69 40
75 80 59 41 30 35 37 30 29 31 31 34 39 39 37 36 37 39 39 38 33 20 12 12 12 18 31 70 94 100 32 28 30 28 27 28 45 70 79 75 72 73 88
77 52 31 32 38 46 45 46 45 41 45 50 42 37 43 48 47 44 42 28 16 12 12 13 39 63 100 100 99 82 31 30 40 64 89 86 70 61 46 35 30 32 36
91 50 39 49 59 56 52 51 48 48 43 36 41 44 46 49 49 46 30 18 14 10 10 62 81 100 100 73 70 88 82 96 77 54 45 37 32 30 27 25 22 20 20
77 55 56 64 65 55 50 50 51 49 48 49 44 44 48 52 48 36 21 14 9 7 32 50 84 100 100 93 91 76 78 56 46 42 42 39 34 28 24 23 21 19 16
55 60 68 67 52 51 54 53 52 49 42 46 48 51 54 51 37 21 14 9 7 12 19 91 100 100 100 88 81 70 56 50 50 48 40 30 33 41 47 49 51 52 47
58 68 58 52 56 58 59 54 44 39 46 48 50 53 53 41 24 16 10 8 12 16 26 100 100 100 80 67 72 59 55 53 47 33 50 50 48 54 62 62 65 78 68
65 61 63 66 65 59 51 42 44 45 48 52 58 54 43 28 19 10 8 12 14 16 77 100 100 79 71 68 62 57 51 46 38 58 46 60 67 74 84 90 90 92 95
74 76 80 76 69 56 49 44 43 50 54 61 55 42 26 18 11 10 14 17 16 30 83 84 90 81 67 63 59 50 45 36 59 61 76 81 96 100 88 92 87 100 100
85 86 83 69 57 50 43 42 48 56 62 56 43 27 18 11 10 16 18 21 23 33 57 75 67 68 63 61 52 48 38 54 70 88 94 93 100 100 100 96 48 91 100
82 83 67 55 48 44 40 43 54 64 60 49 36 19 11 10 16 19 25 43 59 71 77 60 60 66 65 64 57 49 32 67 90 99 95 96 100 100 100 100 36 70 96
76 66 58 53 47 38 38 43 56 64 57 39 22 12 10 14 19 23 39 61 71 70 67 58 52 68 72 59 52 35 30 70 82 94 100 100 100 100 100 100 51 59 94
72 64 59 49 41 40 43 62 71 62 42 20 14 10 13 17 20 24 52 63 65 72 74 60 49 65 71 58 48 32 28 64 80 93 100 98 100 100 100 100 75 23 30
68 63 55 49 49 51 66 74 65 47 21 14 11 12 16 18 20 30 59 62 67 74 79 72 63 74 74 58 49 35 27 65 79 96 94 100 100 100 100 100 85 26 27
69 65 60 56 66 78 80 68 49 24 16 12 11 13 15 16 20 42 61 59 64 83 81 80 68 79 72 57 49 35 25 63 83 99 95 100 100 100 100 100 100 54 13
71 67 63 68 78 81 70 49 24 20 14 12 13 14 13 18 25 55 76 69 74 84 85 82 72 83 68 54 48 38 24 64 84 100 94 100 100 100 99 100 100 100 65
74 70 73 80 83 72 48 28 23 16 12 14 15 13 14 24 34 60 79 70 66 85 90 82 87 81 63 53 46 40 24 46 90 100 96 95 100 100 93 94 96 99 100
77 78 87 87 73 50 31 28 20 14 13 15 16 14 20 36 44 47 67 68 69 85 91 91 82 74 63 55 45 46 30 27 74 91 96 88 100 100 100 86 78 80 69
Wind_Speed
21 21 22 27 29 28 33 40 41 43 49 47 40 39 39 41 49 49 51 50 50 51 54 56 59 60 62 64 65 68 70 71 73 73 73 73 72 73 74 75 76 77 77
22 24 26 27 25 35 40 41 43 46 45 44 42 40 45 48 48 48 52 55 56 58 60 63 66 68 71 73 74 75 75 77 78 77 78 78 77 77 78 80 81 81 79
20 19 24 28 35 38 40 42 43 44 43 42 45 48 45 46 48 52 55 58 60 63 66 69 72 74 77 79 81 82 82 82 82 83 85 84 84 86 83 80 80 81 80
16 20 28 34 37 38 40 42 45 46 46 45 44 45 46 49 51 54 57 61 64 68 71 74 77 80 82 84 84 85 84 84 84 86 86 88 88 88 87 85 83 82 82
25 30 38 38 38 37 39 39 40 42 43 42 44 45 48 50 53 58 62 65 69 73 75 78 80 81 83 82 81 82 84 85 87 88 89 89 89 88 89 86 83 83 82
33 34 37 40 39 42 36 36 39 39 39 41 43 44 48 53 57 61 65 69 72 76 78 81 84 85 80 79 79 80 82 83 85 86 86 87 89 90 91 92 87 87 84
39 35 40 41 41 31 29 33 36 39 40 40 42 48 53 57 61 66 71 74 81 84 84 83 83 82 83 83 84 84 85 85 85 85 86 87 88 90 90 93 93 92 91
38 45 43 40 35 29 28 28 31 34 39 46 53 58 63 66 71 74 76 82 84 87 87 86 85 85 86 87 87 87 84 82 83 84 84 82 81 78 75 71 69 69 69
43 29 36 32 32 31 33 35 38 43 50 56 63 66 69 74 78 81 84 85 86 87 86 89 90 89 89 87 82 78 79 76 75 74 70 67 64 59 55 51 50 50 51
29 33 31 31 33 38 40 43 48 53 58 64 68 71 75 79 83 86 88 87 85 85 87 89 88 82 77 67 66 73 75 67 65 63 61 55 49 47 47 49 50 49 49
36 35 35 39 42 45 46 49 54 59 64 67 69 74 79 83 84 86 85 84 86 87 88 82 79 70 61 65 72 70 65 51 47 46 45 47 50 51 52 54 54 54 53
38 40 41 44 46 48 51 55 59 64 67 69 73 79 83 86 88 88 87 88 89 88 82 73 70 57 61 66 70 71 51 47 45 46 49 51 53 56 57 58 57 57 57
38 43 43 48 49 51 54 58 64 67 70 73 79 84 88 90 90 89 89 89 90 83 68 69 59 62 62 61 65 63 53 52 51 53 56 58 57 55 52 50 51 51 53
43 44 48 50 51 54 59 63 67 70 75 80 84 86 88 89 89 90 91 90 79 73 67 54 55 63 59 63 61 52 52 53 55 58 58 54 51 50 50 48 46 46 47
43 46 50 51 55 59 63 66 70 75 80 83 86 87 88 90 91 94 92 80 72 65 54 46 58 58 57 53 48 49 51 55 56 53 48 48 47 47 48 48 47 46 45
45 48 51 55 59 61 63 68 74 78 81 85 87 90 90 91 95 93 84 71 63 57 47 51 54 46 44 45 47 49 53 54 48 44 42 42 42 42 43 42 41 40 41
47 51 54 59 62 63 67 72 75 80 84 86 88 89 90 94 93 82 69 59 53 41 37 37 36 34 40 43 44 50 51 48 42 41 42 44 44 43 40 40 38 35 35
50 53 57 59 62 67 71 74 77 81 83 85 88 90 93 92 81 68 56 51 39 32 30 27 30 36 40 42 47 50 48 41 38 42 44 45 42 40 37 36 30 31 33
51 55 57 61 65 68 71 74 78 80 82 86 90 91 90 82 67 56 45 35 28 29 30 28 31 37 40 41 49 46 42 36 38 41 42 43 39 35 33 30 22 21 26
54 57 61 65 67 70 74 77 80 81 86 88 90 89 81 70 57 47 37 30 31 32 31 31 34 39 40 43 48 44 38 34 35 37 39 39 36 30 25 25 18 15 17
56 60 64 66 70 74 78 79 80 85 87 88 90 83 72 58 49 40 33 31 32 33 32 32 36 40 40 45 47 44 38 31 31 31 33 33 32 28 24 21 17 11 13
59 63 66 70 75 78 78 78 83 86 85 87 85 74 60 50 42 34 29 30 33 32 31 33 37 40 40 45 46 42 36 28 26 27 29 30 31 30 25 22 17 9 3
63 67 71 75 76 76 78 82 84 83 84 82 76 66 53 44 36 30 29 31 33 30 31 33 37 39 38 44 43 40 35 26 23 24 25 26 29 30 27 22 17 12 6
68 71 74 74 73 75 79 82 82 84 82 75 69 58 46 37 32 28 28 31 31 30 32 33 36 36 37 42 41 38 34 25 21 20 21 22 25 26 23 19 15 12 9
72 74 73 71 73 77 78 79 82 81 75 68 62 51 38 33 29 29 29 31 32 31 31 32 35 33 36 40 40 35 33 25 19 18 16 17 21 22 20 17 13 9 6
73 72 70 72 76 77 78 82 81 77 68 61 52 44 33 30 29 29 29 30 32 31 30 32 32 33 36 39 39 33 32 26 20 16 14 13 15 18 15 13 12 12 11
Wind_Direction
319 321 313 311 314 319 316 317 316 309 305 310 309 303 298 299 300 301 303 305 304 303 304 305 304 303 302 301 301 300 298 296 294 291 287 284 281 281 282 280 279 277 275
318 321 316 314 308 309 309 304 300 301 305 305 300 298 296 300 303 304 304 305 305 307 306 306 307 306 303 302 299 296 295 294 291 290 288 286 281 279 279 278 277 275 272
312 312 307 304 303 301 299 298 299 299 297 295 296 299 302 303 303 304 304 306 307 308 308 306 305 303 302 301 300 298 295 292 290 288 286 283 282 279 277 276 275 273 272
266 279 302 306 302 299 300 302 300 296 296 296 297 300 302 304 305 305 306 308 307 306 305 305 303 302 300 297 295 292 291 289 287 285 283 281 280 277 274 273 272 271 272
283 288 303 307 302 303 301 299 293 291 294 299 300 302 305 306 306 306 306 306 305 304 303 300 298 297 296 296 295 292 290 288 286 285 284 283 281 280 278 273 270 268 267
293 290 296 299 301 302 299 291 290 293 295 296 301 305 306 304 303 303 302 302 301 300 302 304 304 303 300 297 295 292 289 286 284 282 281 279 276 275 274 274 271 268 265
294 292 307 301 301 299 294 294 298 301 303 304 303 302 303 305 305 305 307 309 311 309 307 305 304 301 299 297 295 292 289 287 284 281 279 279 279 278 277 275 273 268 265
301 307 302 299 300 301 299 297 300 305 308 308 309 310 312 311 311 311 310 310 310 309 309 306 304 303 300 297 294 291 289 287 287 286 285 283 284 284 283 281 279 276 272
298 299 299 306 309 312 311 311 312 315 315 316 315 313 312 312 313 313 312 310 310 309 307 305 305 303 300 298 298 295 296 294 291 290 289 288 287 286 283 282 278 278 276
310 309 299 304 308 312 312 315 317 317 316 314 313 311 311 313 313 313 312 311 309 306 303 303 304 303 301 301 295 299 305 298 292 290 289 288 285 281 280 278 276 274 273
308 304 306 311 312 313 314 314 313 314 312 310 310 312 311 311 311 311 310 309 308 308 310 305 300 303 301 302 293 304 311 306 299 293 290 289 286 283 280 277 274 270 266
299 299 307 311 309 312 312 311 311 309 309 310 311 312 313 313 312 314 313 312 311 311 306 300 299 290 294 308 309 305 309 305 299 295 292 289 287 285 283 279 274 269 263
296 297 304 306 307 305 306 310 308 307 308 311 313 314 314 314 315 315 313 312 312 311 303 300 298 290 296 309 306 309 305 303 302 300 298 296 293 289 284 278 274 270 264
294 300 301 300 302 307 311 308 307 310 313 313 314 314 315 316 315 314 314 315 312 307 304 302 286 298 308 309 307 304 305 304 304 303 301 299 295 291 285 281 275 270 265
303 302 302 306 308 309 310 310 312 313 313 313 314 315 317 317 316 316 317 314 310 307 304 283 287 296 306 308 307 307 306 307 307 307 305 305 304 299 292 284 275 266 261
303 303 306 308 309 310 310 311 313 312 313 314 316 318 319 318 317 318 315 313 311 309 292 287 294 301 308 309 311 311 311 313 314 311 315 316 310 306 299 294 281 271 261
303 305 307 308 310 311 312 312 313 314 315 317 317 319 319 320 319 317 317 315 314 312 302 304 311 312 311 312 314 315 318 318 314 316 315 315 313 307 308 297 285 267 263
303 305 307 310 312 312 313 315 315 315 316 317 319 320 320 319 319 319 319 319 318 320 313 309 313 315 317 318 321 323 322 317 315 318 319 319 316 311 309 311 292 265 257
306 308 309 311 312 314 315 315 316 317 318 320 320 320 319 319 321 319 319 318 323 315 308 311 316 321 321 323 326 325 322 318 319 322 324 325 323 316 311 319 301 276 259
308 309 310 312 314 315 317 317 318 319 320 320 320 321 320 321 320 318 316 312 314 311 308 313 315 322 325 326 327 327 327 321 323 327 331 333 332 326 317 321 311 282 264
308 311 313 314 316 318 318 319 320 320 321 321 321 320 321 320 318 317 312 307 309 308 306 311 315 322 325 326 328 331 330 323 327 333 340 343 346 346 338 331 326 297 271
312 314 314 316 319 320 319 320 321 321 321 321 320 321 320 318 316 314 308 308 311 306 307 310 316 321 324 328 330 330 331 324 331 338 344 351 356 358 355 356 357 352 319
314 315 318 320 320 319 319 321 321 321 321 320 321 321 318 316 314 310 307 309 313 308 307 310 315 320 322 329 329 330 333 324 331 338 344 352 360 3 4 2 11 25 54
316 318 319 319 318 319 320 320 320 320 321 322 321 320 316 313 312 307 309 313 313 310 309 311 315 318 322 330 330 330 332 324 328 333 342 352 2 6 8 9 19 42 74
318 318 317 318 318 319 319 319 319 320 323 322 320 318 312 310 308 304 305 308 312 310 310 313 316 318 325 330 331 328 333 327 316 323 333 346 360 6 14 26 32 43 67
316 317 316 317 318 318 318 318 319 322 323 321 317 315 309 308 309 306 303 307 307 309 312 315 317 322 327 330 331 325 330 327 309 311 317 330 346 359 9 25 39 56 75